Home   Weather   Orange   Past weeks

Flag for USA Past Weather in Orange, California, USA — Yesterday and Last 2 Weeks

Now
73 °F

Broken clouds.


Feels Like: 74 °F
Forecast: 67 / 81 °F
Wind: 8 mph from Southwest

Location: John Wayne Airport-Orange County Airport

Current Time: Jul 24, 2017 at 5:56:52 pm

Latest Report: Jul 24, 2017 at 4:53 pm


Visibility: 9 mi

Pressure: 29.86 "Hg

Humidity: 76%

Dew Point: 65 °F

Location of OrangeLocation

Past Weather in Orange — Graph

°F

Orange Temperature Yesterday

Maximum temperature yesterday: 80 °F (at 1:53 pm)
Minimum temperature yesterday: 69 °F (at 12:53 am)
Average temperature yesterday: 73 °F

High & Low Weather Summary for the Past Weeks

 TemperatureHumidityPressure
High82 °F (Jul 10, 11:53 am)93% (Jul 10, 5:53 am)30.02 "Hg (Jul 10, 5:53 am)
Low66 °F (Jul 14, 1:53 am)48% (Jul 14, 5:53 pm)29.81 "Hg (Jul 16, 5:53 pm)
Average73 °F77%29.92 "Hg
* Reported Jul 9 3:53 pm — Jul 24 3:53 pm, Orange. Weather by CustomWeather, © 2017

Note: Actual official high and low records may vary slightly from our data, if they occured in-between our weather recording intervals... More about our weather records

Advertising

Orange Weather History for the Previous 24 Hours

Scroll right to see more
 ConditionsComfort  
Time TempWeatherWind HumidityBarometerVisibility
3:53 pm
Mon, Jul 24
74 °FBroken clouds.12 mph74%29.87 "Hg10 mi
2:53 pm76 °FBroken clouds.9 mph69%29.88 "Hg10 mi
1:53 pm76 °FBroken clouds.10 mph72%29.90 "Hg10 mi
12:53 pm74 °FPartly sunny.7 mph74%29.91 "Hg10 mi
11:53 am75 °FPartly sunny.No wind71%29.92 "Hg10 mi
10:53 am74 °FPartly sunny.5 mph74%29.92 "Hg10 mi
9:53 am74 °FBroken clouds.7 mph74%29.93 "Hg10 mi
9:33 am74 °FPartly sunny.5 mph74%29.94 "Hg10 mi
8:53 am73 °FPartly sunny.3 mph74%29.91 "Hg10 mi
7:53 am72 °FBroken clouds.No wind76%29.90 "Hg10 mi
7:37 am71 °FScattered clouds.3 mph78%29.90 "Hg10 mi
6:53 am70 °FPartly sunny.No wind81%29.89 "Hg10 mi
5:53 am69 °FPassing clouds.5 mph84%29.88 "Hg10 mi
5:18 am69 °FPassing clouds.5 mph84%29.88 "Hg10 mi
4:53 am69 °FPassing clouds.No wind84%29.88 "Hg10 mi
3:53 am69 °FClear.No wind84%29.87 "Hg10 mi
2:53 am69 °FClear.No wind84%29.88 "Hg10 mi
1:53 am69 °FClear.No wind84%29.88 "Hg10 mi
12:53 am69 °FClear.No wind84%29.89 "Hg10 mi
12:24 am69 °FPassing clouds.No wind84%29.90 "Hg10 mi
11:53 pm
Sun, Jul 23
69 °FOvercast.5 mph84%29.90 "Hg10 mi
11:34 pm69 °FOvercast.5 mph84%29.91 "Hg10 mi
10:53 pm69 °FPassing clouds.5 mph84%29.90 "Hg10 mi
9:53 pm69 °FPassing clouds.7 mph84%29.90 "Hg10 mi
8:53 pm70 °FOvercast.10 mph84%29.88 "Hg10 mi
8:35 pm71 °FPassing clouds.9 mph81%29.88 "Hg10 mi
7:53 pm71 °FScattered clouds.12 mph81%29.85 "Hg10 mi
6:53 pm72 °FScattered clouds.12 mph78%29.83 "Hg10 mi
5:53 pm76 °FScattered clouds.9 mph69%29.82 "Hg10 mi
Weather by CustomWeather, © 2017

See weather overviewHow to use our weather pages